This is the latest recevied weather packets stored in our database for station/object KF4WSW-13. If no packets are shown the sender has not sent any weather packets the latest 10 day(s).
| Time | Temp. | Humidity | Pressure | Rain* | Wind** | Luminosity | Snow |
|---|---|---|---|---|---|---|---|
| 1777291570 | 22.78° C | 91% | 1013.4 hPa | 0 mm | - | 88 W/m² | - |
| 1777291267 | 22.78° C | 91% | 1013.5 hPa | 0 mm | - | 103 W/m² | - |
| 1777290964 | 22.78° C | 92% | 1013.2 hPa | 0 mm | - | 93 W/m² | - |
| 1777290661 | 22.78° C | 92% | 1013.4 hPa | 0 mm | - | 72 W/m² | - |
| 1777290357 | 22.78° C | 92% | 1013.2 hPa | 0 mm | - | 63 W/m² | - |
| 1777290052 | 22.78° C | 92% | 1013.1 hPa | 0 mm | - | 52 W/m² | - |
| 1777289749 | 22.78° C | 92% | 1013 hPa | 0 mm | - | 44 W/m² | - |
| 1777289445 | 22.78° C | 93% | 1013.1 hPa | 0 mm | - | 36 W/m² | - |
| 1777289142 | 22.78° C | 92% | 1012.7 hPa | 0 mm | - | 29 W/m² | - |
| 1777288839 | 22.78° C | 92% | 1012.6 hPa | 0 mm | - | 21 W/m² | - |
| 1777288535 | 22.78° C | 92% | 1012.7 hPa | 0 mm | - | 17 W/m² | - |
| 1777288232 | 22.78° C | 92% | 1012.4 hPa | 0 mm | - | 11 W/m² | - |
| 1777287928 | 22.78° C | 92% | 1012.4 hPa | 0 mm | - | 8 W/m² | - |
| 1777287625 | 22.78° C | 92% | 1012.2 hPa | 0 mm | - | 5 W/m² | - |
| 1777287321 | 23.33° C | 92% | 1012.3 hPa | 0 mm | - | 3 W/m² | - |
| 1777287018 | 23.33° C | 92% | 1012.2 hPa | 0 mm | - | 1 W/m² | - |
| 1777286715 | 23.33° C | 92% | 1011.8 hPa | 0 mm | - | 1 W/m² | - |
| 1777286413 | 23.33° C | 92% | 1011.9 hPa | 0 mm | - | 0 W/m² | - |
| 1777286109 | 23.33° C | 92% | 1011.8 hPa | 0 mm | - | 0 W/m² | - |
| 1777285807 | 23.89° C | 92% | 1011.6 hPa | 0 mm | - | 0 W/m² | - |
| 1777285504 | 23.89° C | 91% | 1011.5 hPa | 0 mm | - | 0 W/m² | - |
| 1777285201 | 23.89° C | 91% | 1011.8 hPa | 0 mm | - | 0 W/m² | - |
| 1777284899 | 23.89° C | 91% | 1011.4 hPa | 0 mm | - | 0 W/m² | - |
| 1777284595 | 23.89° C | 91% | 1011.6 hPa | 0 mm | - | 0 W/m² | - |
| 1777284292 | 23.89° C | 91% | 1011.5 hPa | 0 mm | - | 0 W/m² | - |
* Rain latest hour (hover to see other rain measurements)
** Current wind speed in m/s (hover to see current wind gust speed)